Weather observations for the past three days for
Hannibal Regional Airport
Imperial (Metric)
Date Time (cdt) Wind (mph) Vis. (mi.) Weather Sky Cond. Temperature (ºF) Relative Humidity Wind Chill (°F) Heat Index (°F) Pressure Precipitation (in)
Air Dwpt 6 hour altimeter (in) sea level (mb) 1 hr 3 hr 6 hr
Max. Min.
16 15:15 N 3 10.00 Fair CLR 77 69.8 79% 79 29.86 0.0
16 14:55 N 3 10.00 Fair CLR 75.2 69.8 83% 75 29.86 0.0
16 14:35 SE 3 10.00 Fair CLR 73.4 69.8 89% 29.87 0.0
16 14:15 SE 5 10.00 Fair CLR 73.4 69.8 89% 29.89 0.0
16 13:55 S 6 10.00 Fair CLR 73.4 69.8 89% 29.92 0.0
16 13:15 S 9 10.00 Partly Cloudy SCT024 SCT032 SCT041 73.4 69.8 89% 29.95 0.0
16 12:55 S 13 G 20 10.00 Light Rain SCT004 BKN015 OVC055 73.4 69.8 89% 29.95 0.0 0.01
16 12:35 SW 20 G 26 10.00 Light Rain SCT004 BKN013 BKN017 75.2 71.6 89% 75 29.97 0.0 0.01
16 12:15 S 6 10.00 Light Rain SCT011 BKN047 BKN055 77 73.4 89% 78 29.9 0.0 0.01
16 11:55 E 5 10.00 Light Rain BKN009 BKN050 OVC090 75.2 71.6 89% 75 29.85 0.0 0.01
16 11:35 E 6 10.00 Light Rain SCT009 BKN075 OVC100 73.4 71.6 94% 29.84 0.0 0.01
16 11:15 Calm 10.00 Light Rain SCT009 SCT070 BKN085 75.2 71.6 89% 75 29.85 0.0
16 10:55 W 3 10.00 Thunderstorm OVC009 75.2 71.6 89% 75 29.86 0.0
16 10:35 SW 6 10.00 Thunderstorm in Vicinity BKN011 OVC026 77 71.6 83% 78 29.87 0.0
16 10:15 SW 12 10.00 Thunderstorm in Vicinity SCT011 BKN026 OVC030 77 71.6 83% 78 29.91 0.0
16 09:55 SW 5 10.00 Thunderstorm in Vicinity BKN026 BKN031 BKN120 77 73.4 89% 78 29.86 0.0
16 09:35 S 5 10.00 Thunderstorm in Vicinity SCT120 78.8 73.4 84% 82 29.81 0.0
16 09:15 S 6 10.00 Partly Cloudy SCT060 78.8 73.4 84% 82 29.8 0.0
16 08:55 S 6 10.00 Fair CLR 77 71.6 83% 78 29.81 0.0
16 08:35 S 6 10.00 Fair CLR 75.2 71.6 89% 75 29.82 0.0
16 08:15 S 5 10.00 Thunderstorm in Vicinity CLR 73.4 71.6 94% 29.81 0.0
16 07:55 S 9 10.00 Light Rain SCT070 SCT085 SCT110 73.4 71.6 94% 29.8 0.0 0.06
16 07:35 S 7 10.00 Light Rain SCT011 SCT028 SCT035 73.4 71.6 94% 29.79 0.0 0.06
16 07:15 SE 8 7.00 Thunderstorm Heavy Rain SCT015 BKN050 OVC075 73.4 71.6 94% 29.83 0.0 0.02
16 06:55 S 10 10.00 Thunderstorm Rain in Vicinity SCT015 BKN030 OVC050 73.4 71.6 94% 29.8 0.0 0.02
16 06:35 S 10 10.00 Thunderstorm in Vicinity BKN028 OVC044 73.4 69.8 89% 29.81 0.0
16 06:15 S 9 10.00 Thunderstorm Light Rain in Vicinity BKN028 BKN033 OVC039 73.4 69.8 89% 29.79 0.0
16 05:55 SE 8 7.00 Thunderstorm Light Rain in Vicinity OVC028 73.4 71.6 94% 29.78 0.0 0.21
16 05:35 SE 9 G 16 10.00 Thunderstorm Light Rain in Vicinity BKN026 OVC033 73.4 69.8 89% 29.8 0.0 0.17
16 05:15 SE 10 G 17 5.00 Thunderstorm Rain BKN033 OVC039 73.4 71.6 94% 29.78 0.0 0.16
16 04:55 S 13 G 17 4.00 Thunderstorm Heavy Rain SCT029 OVC036 73.4 69.8 89% 29.8 0.0 0.13
16 04:35 SE 8 10.00 Overcast SCT033 OVC040 73.4 68 83% 29.78 0.0
16 04:15 E 6 10.00 Thunderstorm in Vicinity OVC042 73.4 68 83% 29.79 0.0
16 03:55 E 8 10.00 Overcast OVC044 73.4 68 83% 29.78 0.0
16 03:35 E 7 10.00 Overcast OVC046 75.2 68 78% 76 29.78 0.0
16 03:15 E 6 10.00 Overcast OVC050 75.2 69.8 83% 75 29.78 0.0
16 02:55 E 7 10.00 Overcast OVC050 77 69.8 79% 79 29.78 0.0
16 02:35 E 7 10.00 Overcast BKN055 BKN065 OVC090 77 69.8 79% 79 29.8 0.0
16 02:15 E 7 10.00 Thunderstorm in Vicinity SCT060 SCT070 BKN090 80.6 73.4 79% 85 29.78 0.0
16 01:55 SE 3 10.00 Mostly Cloudy BKN060 BKN070 BKN090 82.4 73.4 74% 88 29.78 0.0
16 01:35 SE 5 10.00 Overcast BKN060 OVC075 82.4 73.4 74% 88 29.79 0.0
16 01:15 SE 5 10.00 Overcast OVC060 82.4 75.2 79% 89 29.79 0.0
16 00:55 SE 3 10.00 Overcast OVC060 82.4 75.2 79% 89 29.79 0.0
16 00:35 SE 3 10.00 Overcast OVC060 82.4 75.2 79% 89 29.79 0.0
16 00:15 SE 3 10.00 Mostly Cloudy BKN060 82.4 73.4 74% 88 29.79 0.0
15 23:55 SE 3 10.00 Partly Cloudy SCT060 SCT080 82.4 73.4 74% 88 29.78 0.0
15 23:35 S 3 10.00 Partly Cloudy SCT070 SCT075 SCT090 82.4 73.4 74% 88 29.78 0.0
15 23:15 SE 5 10.00 Mostly Cloudy SCT070 BKN080 82.4 73.4 74% 88 29.79 0.0
15 22:55 E 6 10.00 Overcast OVC070 84.2 73.4 70% 91 29.81 0.0
15 22:35 NE 3 10.00 Mostly Cloudy BKN070 82.4 75.2 79% 89 29.82 0.0
15 22:15 Calm 10.00 Fair CLR 84.2 73.4 70% 91 29.8 0.0
15 21:55 S 6 10.00 Fair CLR 86 75.2 70% 95 29.8 0.0
15 21:35 S 5 10.00 Fair CLR 86 75.2 70% 95 29.79 0.0
15 21:15 S 6 10.00 Fair CLR 86 75.2 70% 95 29.78 0.0
15 20:55 S 7 10.00 Fair CLR 87.8 73.4 62% 96 29.77 0.0
15 20:35 SW 9 10.00 Fair CLR 87.8 73.4 62% 96 29.76 0.0
15 20:15 SW 13 G 17 10.00 Fair CLR 87.8 73.4 62% 96 29.75 0.0
15 19:55 S 13 G 17 10.00 Fair CLR 87.8 73.4 62% 96 29.75 0.0
15 19:35 S 14 G 18 10.00 Fair CLR 87.8 73.4 62% 96 29.75 0.0
15 19:15 S 14 G 20 10.00 Fair CLR 89.6 75.2 63% 100 29.74 0.0
15 18:55 S 13 G 21 10.00 Fair CLR 91.4 77 63% 105 29.73 0.0
15 18:35 S 12 G 21 10.00 Fair CLR 91.4 77 63% 105 29.74 0.0
15 18:15 S 14 G 21 10.00 Fair CLR 91.4 77 63% 105 29.74 0.0
15 17:55 S 14 10.00 Fair CLR 91.4 77 63% 105 29.74 0.0
15 17:35 S 15 10.00 Fair CLR 91.4 77 63% 105 29.75 0.0
15 17:15 S 12 G 21 10.00 Fair CLR 93.2 77 59% 107 29.77 0.0
15 16:55 SW 12 G 17 10.00 Fair CLR 93.2 78.8 63% 110 29.78 0.0
15 16:35 S 12 G 18 10.00 Fair CLR 93.2 77 59% 107 29.79 0.0
15 16:15 S 13 10.00 Fair CLR 93.2 77 59% 107 29.8 0.0
15 15:55 S 9 G 16 10.00 Fair CLR 93.2 77 59% 107 29.82 0.0
15 15:35 S 10 10.00 Fair CLR 95 78.8 60% 113 29.82 0.0
15 15:15 S 8 10.00 Fair CLR 95 78.8 60% 113 29.82 0.0
15 14:55 SW 10 10.00 Fair CLR 95 77 56% 110 29.83 0.0
15 14:35 S 8 10.00 Fair CLR 95 77 56% 110 29.83 0.0
15 14:15 S 9 10.00 Fair CLR 95 77 56% 110 29.83 0.0
15 13:55 S 9 G 16 10.00 Fair CLR 95 77 56% 110 29.84 0.0
15 13:35 S 12 G 16 10.00 Fair CLR 93.2 77 59% 107 29.84 0.0
15 13:15 S 12 10.00 Fair CLR 93.2 77 59% 107 29.85 0.0
15 12:55 S 9 10.00 Fair CLR 91.4 77 63% 105 29.85 0.0
15 12:35 SW 10 10.00 Fair CLR 91.4 75.2 59% 103 29.87 0.0
15 12:15 S 9 10.00 Fair CLR 91.4 75.2 59% 103 29.87 0.0
15 11:35 SW 12 10.00 Fair CLR 89.6 73.4 59% 98 29.88 0.0
15 11:15 SW 10 10.00 Fair CLR 89.6 75.2 63% 100 29.88 0.0
15 10:55 SW 8 10.00 Fair CLR 89.6 73.4 59% 98 29.89 0.0
15 10:35 SW 6 G 9 10.00 Fair CLR 87.8 73.4 62% 96 29.89 0.0
15 10:15 SW 9 10.00 Fair CLR 87.8 73.4 62% 96 29.89 0.0
15 09:55 SW 9 10.00 Fair CLR 86 73.4 66% 93 29.89 0.0
15 09:35 SW 8 10.00 Fair CLR 86 73.4 66% 93 29.89 0.0
15 09:15 SW 8 10.00 Fair CLR 82.4 73.4 74% 88 29.9 0.0
15 08:55 SW 8 10.00 Fair CLR 82.4 73.4 74% 88 29.9 0.0
15 08:35 SW 9 10.00 Fair CLR 82.4 73.4 74% 88 29.9 0.0
15 08:15 SW 9 10.00 Fair CLR 80.6 73.4 79% 85 29.9 0.0
15 07:55 SW 9 10.00 Fair CLR 80.6 73.4 79% 85 29.9 0.0
15 07:35 S 8 10.00 Fair CLR 78.8 71.6 79% 82 29.9 0.0
15 07:15 S 8 10.00 Fair CLR 78.8 71.6 79% 82 29.9 0.0
15 06:55 SW 9 10.00 Fair CLR 77 71.6 83% 78 29.9 0.0
15 06:35 SW 10 10.00 Fair CLR 77 71.6 83% 78 29.9 0.0
15 06:15 SW 9 10.00 Fair CLR 77 71.6 83% 78 29.91 0.0
15 05:55 S 7 10.00 Fair CLR 77 71.6 83% 78 29.9 0.0
15 05:35 S 6 10.00 Fair CLR 77 71.6 83% 78 29.91 0.0
15 05:15 S 6 10.00 Fair CLR 77 73.4 89% 78 29.91 0.0
15 04:55 S 7 10.00 Fair CLR 77 73.4 89% 78 29.91 0.0
15 04:35 S 6 10.00 Partly Cloudy SCT055 77 71.6 83% 78 29.91 0.0
15 04:15 S 6 10.00 Partly Cloudy SCT055 77 73.4 89% 78 29.91 0.0
15 03:55 S 5 10.00 Partly Cloudy SCT055 78.8 73.4 84% 82 29.91 0.0
15 03:35 SW 6 10.00 Partly Cloudy SCT055 78.8 73.4 84% 82 29.91 0.0
15 03:15 SW 3 10.00 Mostly Cloudy BKN055 78.8 73.4 84% 82 29.91 0.0
15 02:55 SW 5 10.00 Partly Cloudy SCT055 78.8 73.4 84% 82 29.91 0.0
15 02:35 SW 5 10.00 Fair CLR 78.8 73.4 84% 82 29.91 0.0
15 02:15 S 6 10.00 Partly Cloudy SCT055 78.8 73.4 84% 82 29.91 0.0
15 01:55 SW 6 10.00 Mostly Cloudy BKN055 80.6 73.4 79% 85 29.92 0.0
15 01:35 SW 6 10.00 Mostly Cloudy BKN055 78.8 73.4 84% 82 29.92 0.0
15 01:15 S 7 10.00 Mostly Cloudy BKN055 80.6 73.4 79% 85 29.91 0.0
15 00:55 S 7 10.00 Fair CLR 80.6 73.4 79% 85 29.91 0.0
15 00:35 S 6 10.00 Fair CLR 80.6 73.4 79% 85 29.91 0.0
15 00:15 S 6 10.00 Fair CLR 80.6 73.4 79% 85 29.91 0.0
14 23:55 S 8 10.00 Fair CLR 80.6 73.4 79% 85 29.9 0.0
14 23:35 SW 7 10.00 Fair CLR 80.6 73.4 79% 85 29.91 0.0
14 23:15 SW 8 10.00 Partly Cloudy SCT060 SCT070 80.6 73.4 79% 85 29.91 0.0
14 22:55 SW 6 10.00 Partly Cloudy SCT060 80.6 73.4 79% 85 29.92 0.0
14 22:35 SW 3 10.00 Fair CLR 82.4 73.4 74% 88 29.93 0.0
14 22:15 SW 6 10.00 Fair CLR 82.4 73.4 74% 88 29.92 0.0
14 21:55 SW 6 10.00 Fair CLR 82.4 73.4 74% 88 29.92 0.0
14 21:35 SW 5 10.00 Fair CLR 82.4 73.4 74% 88 29.92 0.0
14 21:15 SW 6 10.00 Fair CLR 84.2 73.4 70% 91 29.91 0.0
14 20:55 SW 10 G 16 10.00 Fair CLR 84.2 73.4 70% 91 29.9 0.0
14 20:35 SW 10 10.00 Fair CLR 86 73.4 66% 93 29.89 0.0
14 20:15 S 12 10.00 Fair CLR 86 73.4 66% 93 29.89 0.0
14 19:55 S 14 10.00 Fair CLR 86 73.4 66% 93 29.9 0.0
14 19:35 S 15 G 21 10.00 Fair CLR 87.8 73.4 62% 96 29.9 0.0
14 19:15 S 15 G 20 10.00 Fair CLR 87.8 75.2 66% 98 29.9 0.0
14 18:55 S 10 10.00 Fair CLR 89.6 77 67% 103 29.91 0.0
14 18:35 S 9 10.00 Fair CLR 89.6 77 67% 103 29.92 0.0
14 18:15 SW 10 10.00 Fair CLR 91.4 77 63% 105 29.92 0.0
14 17:55 SW 12 10.00 Partly Cloudy SCT038 91.4 75.2 59% 103 29.93 0.0
14 17:35 SW 12 10.00 Fair CLR 91.4 73.4 56% 100 29.93 0.0
14 17:15 SW 15 G 20 10.00 Partly Cloudy SCT038 91.4 73.4 56% 100 29.93 0.0
14 16:55 SW 8 10.00 Partly Cloudy SCT038 91.4 77 63% 105 29.93 0.0
14 16:35 SW 13 G 16 10.00 Partly Cloudy SCT036 91.4 77 63% 105 29.94 0.0
14 16:15 SW 12 G 21 10.00 Fair CLR 91.4 75.2 59% 103 29.93 0.0
14 15:55 SW 12 G 18 10.00 Partly Cloudy SCT036 91.4 75.2 59% 103 29.94 0.0
14 15:35 S 13 G 20 10.00 Fair CLR 91.4 75.2 59% 103 29.95 0.0
14 15:15 SW 15 G 22 10.00 Fair CLR 91.4 73.4 56% 100 29.96 0.0
14 14:55 S 14 G 21 10.00 Fair CLR 89.6 75.2 63% 100 29.96 0.0
14 14:35 S 17 10.00 Fair CLR 89.6 75.2 63% 100 29.96 0.0
14 14:15 S 15 G 18 10.00 Fair CLR 89.6 75.2 63% 100 29.97 0.0
14 13:55 S 12 G 18 10.00 Fair CLR 89.6 75.2 63% 100 29.97 0.0
14 13:35 S 9 10.00 Fair CLR 89.6 75.2 63% 100 29.98 0.0
14 13:15 S 12 10.00 Fair CLR 87.8 75.2 66% 98 29.99 0.0
14 12:55 S 12 10.00 Fair CLR 87.8 73.4 62% 96 30.01 0.0
14 12:35 S 9 10.00 Fair CLR 87.8 73.4 62% 96 30.01 0.0
14 12:15 S 10 10.00 Fair CLR 87.8 73.4 62% 96 30.02 0.0
14 11:55 S 12 10.00 Fair CLR 87.8 73.4 62% 96 30.02 0.0
14 11:35 SW 9 7.00 Fair CLR 87.8 73.4 62% 96 30.03 0.0
14 11:15 SW 9 10.00 Fair CLR 86 71.6 62% 92 30.04 0.0
14 10:55 SW 10 10.00 Fair CLR 86 71.6 62% 92 30.04 0.0
14 10:35 SW 10 G 16 10.00 Fair CLR 86 71.6 62% 92 30.05 0.0
14 10:15 SW 8 G 16 10.00 Fair CLR 84.2 71.6 66% 90 30.04 0.0
14 09:55 SW 12 G 22 10.00 Fair CLR 82.4 71.6 70% 87 30.05 0.0
14 09:35 SW 8 10.00 Fair CLR 80.6 71.6 74% 85 30.04 0.0
14 09:15 SW 10 10.00 Fair CLR 78.8 71.6 79% 82 30.04 0.0
14 08:55 S 7 10.00 Fair CLR 80.6 71.6 74% 85 30.05 0.0
14 08:35 S 8 10.00 Fair CLR 77 71.6 83% 78 30.05 0.0
14 08:15 S 8 10.00 Partly Cloudy SCT100 77 71.6 83% 78 30.05 0.0
14 07:55 S 9 10.00 Fair CLR 77 71.6 83% 78 30.04 0.0
14 07:35 S 9 10.00 Fair CLR 77 71.6 83% 78 30.04 0.0
14 07:15 S 8 10.00 Fair CLR 77 71.6 83% 78 30.04 0.0
14 06:55 SW 8 10.00 Fair CLR 75.2 71.6 89% 75 30.04 0.0
14 06:35 S 7 10.00 Fair CLR 75.2 71.6 89% 75 30.03 0.0
14 06:15 S 7 10.00 Fair CLR 75.2 71.6 89% 75 30.03 0.0
14 05:55 SW 6 10.00 Fair CLR 75.2 71.6 89% 75 30.03 0.0
14 05:35 S 8 10.00 Fair CLR 75.2 71.6 89% 75 30.02 0.0
14 05:15 SW 7 10.00 Fair CLR 75.2 71.6 89% 75 30.03 0.0
14 04:55 SW 8 10.00 Fair CLR 75.2 71.6 89% 75 30.02 0.0
14 04:35 S 7 10.00 Fair CLR 75.2 71.6 89% 75 30.01 0.0
14 04:15 S 7 10.00 Fair CLR 75.2 71.6 89% 75 30.02 0.0
14 03:55 S 8 10.00 Fair CLR 75.2 71.6 89% 75 30.02 0.0
14 03:35 S 7 10.00 Fair CLR 75.2 71.6 89% 75 30.02 0.0
14 03:15 S 7 10.00 Fair CLR 75.2 71.6 89% 75 30.03 0.0
14 02:55 S 8 10.00 Fair CLR 75.2 71.6 89% 75 30.03 0.0
14 02:35 S 7 10.00 Fair CLR 77 71.6 83% 78 30.03 0.0
14 02:15 S 8 10.00 Fair CLR 77 71.6 83% 78 30.03 0.0
14 01:55 S 8 10.00 Fair CLR 77 71.6 83% 78 30.04 0.0
14 01:35 S 8 10.00 Fair CLR 77 71.6 83% 78 30.05 0.0
14 01:15 S 9 10.00 Fair CLR 75.2 69.8 83% 75 30.05 0.0
14 00:55 S 8 10.00 Fair CLR 75.2 69.8 83% 75 30.06 0.0
14 00:35 S 9 10.00 Fair CLR 77 69.8 79% 79 30.06 0.0
14 00:15 S 9 10.00 Fair CLR 77 69.8 79% 79 30.07 0.0
13 23:55 S 10 10.00 Fair CLR 77 69.8 79% 79 30.07 0.0
13 23:35 S 7 10.00 Fair CLR 77 69.8 79% 79 30.07 0.0
13 23:15 S 8 10.00 Fair CLR 77 69.8 79% 79 30.07 0.0
13 22:55 S 9 10.00 Fair CLR 77 69.8 79% 79 30.07 0.0
13 22:35 S 8 10.00 Fair CLR 77 69.8 79% 79 30.07 0.0
13 22:15 S 7 10.00 Fair CLR 77 69.8 79% 79 30.07 0.0
13 21:55 S 7 10.00 Fair CLR 77 69.8 79% 79 30.07 0.0
13 21:35 S 6 10.00 Fair CLR 77 69.8 79% 79 30.07 0.0
13 21:15 S 6 10.00 Fair CLR 78.8 69.8 74% 81 30.07 0.0
13 20:55 S 7 10.00 Fair CLR 78.8 69.8 74% 81 30.06 0.0
13 20:35 S 7 10.00 Fair CLR 78.8 69.8 74% 81 30.06 0.0
13 20:15 S 7 10.00 Fair CLR 80.6 69.8 70% 84 30.06 0.0
13 19:55 S 7 10.00 Fair CLR 80.6 69.8 70% 84 30.06 0.0
13 19:35 S 8 10.00 Fair CLR 82.4 69.8 66% 86 30.06 0.0
13 19:15 S 13 10.00 Fair CLR 82.4 69.8 66% 86 30.06 0.0
13 18:55 S 12 10.00 Fair CLR 84.2 69.8 62% 88 30.06 0.0
13 18:35 S 9 10.00 Fair CLR 86 71.6 62% 92 30.05 0.0
13 18:15 S 6 G 16 10.00 Fair CLR 86 69.8 59% 91 30.05 0.0
13 17:55 S 8 10.00 Fair CLR 86 69.8 59% 91 30.05 0.0
13 17:35 S 10 10.00 Fair CLR 87.8 69.8 55% 93 30.06 0.0
13 17:15 S 12 5.00 Fair with Haze CLR 87.8 71.6 59% 94 30.06 0.0
13 16:55 S 8 10.00 Fair CLR 87.8 71.6 59% 94 30.06 0.0
13 16:35 S 9 10.00 Fair CLR 87.8 69.8 55% 93 30.07 0.0
13 16:15 S 6 10.00 Fair CLR 87.8 69.8 55% 93 30.07 0.0
13 15:55 S 12 10.00 Fair CLR 87.8 68 52% 91 30.09 0.0
13 15:35 SW 9 10.00 Fair CLR 87.8 69.8 55% 93 30.09 0.0
Date Time (cdt) Wind (mph) Vis. (mi.) Weather Sky Cond. Air Dwpt Max. Min. Relative Humidity Wind Chill (°F) Heat Index (°F) altimeter (in) sea level (mb) 1 hr 3 hr 6 hr
6 hour
Temperature (ºF) Pressure Precipitation (in)